Beckley, WV

1:21 AM EDT on May 24, 2017 (GMT -0400)
Raleigh County Memorial

Weather History for KBKW - May, 2014

Change the Weather History Date:

Friday, May 9, 2014

  Actual Average Record
Temperature  
Mean Temperature 71 °F 58 °F  
Max Temperature 82 °F 69 °F 87 °F (1936)
Min Temperature 59 °F 48 °F 28 °F (1923)
Degree Days  
Heating Degree Days 0 7  
Month to date heating degree days 41 74  
Since 1 July heating degree days 5367 5183  
Cooling Degree Days 6 1  
Month to date cooling degree days 19 3  
Year to date cooling degree days 24 13  
Growing Degree Days 20 (Base 50)    
Moisture  
Dew Point 51 °F    
Average Humidity 49    
Maximum Humidity 68    
Minimum Humidity 30    
Precipitation  
Precipitation T in 0.15 in 1.35 in (1924)
Month to date precipitation 0.06 1.28  
Year to date precipitation 10.31 13.78  
Snow  
Snow 0.00 in - - ()
Month to date snowfall 0.0  
Since 1 September snowfall 76.3  
Snow Depth 0.00 in    
Sea Level Pressure  
Sea Level Pressure 30.03 in    
Wind  
Wind Speed 9 mph (SSW)    
Max Wind Speed 22 mph    
Max Gust Speed 32 mph    
Visibility 10 miles    
Events Rain    
T = Trace of Precipitation, MM = Missing Value Source: NWS Daily Summary

Daily Weather History Graph

Daily Weather History Graph

Search for Another Location

Airport or City:

Trip Planner

Search our weather history database for the weather conditions in past years. The results will help you decide how hot, cold, wet, or windy it might be!

Date:

Astronomy

May. 09, 2014 Rise Set
Actual Time 6:20 AM EDT 8:22 PM EDT
Civil Twilight 5:51 AM EDT 8:51 PM EDT
Nautical Twilight 5:16 AM EDT 9:26 PM EDT
Astronomical Twilight 4:38 AM EDT 10:04 PM EDT
Moon 3:23 PM EDT (5/9) 3:15 AM EDT (5/9)
Length of Visible Light 14h 59m
Length of Day
14h 02m
Waxing Gibbous, 73% of the Moon is Illuminated
May 9
Waxing Gibbous
May 14
Full
May 21
Last Quarter
May 28
New
Jun 5
First Quarter

Hourly Weather History & Observations

Time (EDT) Temp. Dew Point Humidity Pressure Visibility Wind Dir Wind Speed Gust Speed Precip Events Conditions
12:51 AM 64.9 °F 45.0 °F 48% 30.09 in 10.0 mi SSW 3.5 mph - N/A   Clear
1:51 AM 63.0 °F 45.0 °F 52% 30.09 in 10.0 mi South 4.6 mph - N/A   Clear
2:51 AM 64.0 °F 45.0 °F 50% 30.06 in 10.0 mi South 5.8 mph - N/A   Clear
3:51 AM 61.0 °F 46.0 °F 58% 30.06 in 10.0 mi South 4.6 mph - N/A   Clear
4:51 AM 60.1 °F 48.0 °F 64% 30.06 in 10.0 mi South 4.6 mph - N/A   Clear
5:51 AM 59.0 °F 48.0 °F 67% 30.06 in 10.0 mi South 4.6 mph - N/A   Clear
6:51 AM 64.0 °F 50.0 °F 60% 30.06 in 10.0 mi SSE 6.9 mph - N/A   Clear
7:51 AM 68.0 °F 54.0 °F 61% 30.06 in 10.0 mi SSE 4.6 mph - N/A   Clear
8:51 AM 72.0 °F 54.0 °F 53% 30.07 in 10.0 mi SSW 5.8 mph - N/A   Clear
9:51 AM 75.0 °F 52.0 °F 44% 30.07 in 10.0 mi Variable 5.8 mph - N/A   Clear
10:51 AM 77.0 °F 48.9 °F 37% 30.06 in 10.0 mi South 8.1 mph - N/A   Clear
11:51 AM 78.1 °F 46.0 °F 32% 30.05 in 10.0 mi WSW 12.7 mph 20.7 mph N/A   Clear
12:51 PM 79.0 °F 45.0 °F 30% 30.03 in 10.0 mi WSW 13.8 mph 23.0 mph N/A   Partly Cloudy
1:51 PM 80.1 °F 48.9 °F 34% 30.00 in 10.0 mi SW 11.5 mph - N/A   Partly Cloudy
2:51 PM 79.0 °F 48.9 °F 35% 29.97 in 10.0 mi SW 15.0 mph 25.3 mph N/A   Partly Cloudy
3:51 PM 73.0 °F 55.0 °F 53% 29.99 in 10.0 mi Calm Calm - 0.00 in   Mostly Cloudy
4:51 PM 75.9 °F 53.1 °F 45% 29.97 in 10.0 mi SW 16.1 mph 23.0 mph N/A   Scattered Clouds
5:51 PM 73.0 °F 52.0 °F 48% 29.99 in 10.0 mi WSW 16.1 mph 31.1 mph 0.00 in Rain Light Rain
6:51 PM 68.0 °F 55.9 °F 65% 29.99 in 10.0 mi SW 9.2 mph - 0.00 in Rain Light Rain
7:51 PM 66.9 °F 57.0 °F 70% 29.97 in 10.0 mi South 4.6 mph - 0.00 in   Mostly Cloudy
8:51 PM 66.9 °F 55.0 °F 66% 29.98 in 10.0 mi SSW 13.8 mph 19.6 mph N/A   Clear
9:51 PM 66.9 °F 54.0 °F 63% 29.98 in 10.0 mi SSW 10.4 mph - N/A   Clear
10:51 PM 66.0 °F 54.0 °F 65% 30.00 in 10.0 mi SW 11.5 mph - N/A   Clear
11:51 PM 64.9 °F 54.0 °F 68% 29.99 in 10.0 mi SW 10.4 mph 20.7 mph N/A   Clear